Weather History for Del Bajio, Mexico

Change the Weather History Date:

Thursday, November 1, 2012

  Actual Average Record
Temperature  
Mean Temperature 67 °F -  
Max Temperature 84 °F 78 °F 87 °F (2013)
Min Temperature 50 °F 49 °F 39 °F (2011)
Cooling Degree Days 2    
Growing Degree Days 17 (Base 50)    
Moisture  
Dew Point 41 °F    
Average Humidity 47    
Maximum Humidity 82    
Minimum Humidity 19    
Precipitation  
Precipitation 0.00 in - - ()
Sea Level Pressure  
Sea Level Pressure 30.12 in    
Wind  
Wind Speed 3 mph ()    
Max Wind Speed 12 mph    
Max Gust Speed -    
Visibility 9.0 miles    
Events      
Averages and records for this station are not official NWS values.
T = Trace of Precipitation, MM = Missing Value Source: Averaged Metar Reports

Daily Weather History Graph

Daily Weather History Graph

Search for Another Location

Airport:

Trip Planner

Search our weather history database for the weather conditions in past years. The results will help you decide how hot, cold, wet, or windy it might be!

Date:

Astronomy

Nov. 01, 2012 Rise Set
Actual Time 6:48 AM CST 6:09 PM CST
Civil Twilight 6:25 AM CST 6:32 PM CST
Nautical Twilight 5:59 AM CST 6:59 PM CST
Astronomical Twilight 5:33 AM CST 7:25 PM CST
Moon 8:23 PM CST (11/1) 9:07 AM CST (11/1)
Length of Visible Light 12h 06m
Length of Day
11h 21m
Waning Gibbous, 92% of the Moon is Illuminated
Nov 1
Waning Gibbous
Nov 6
Last Quarter
Nov 13
New
Nov 20
First Quarter
Nov 28
Full

Hourly Weather History & Observations

Time (CST) Temp. Dew Point Humidity Pressure Visibility Wind Dir Wind Speed Gust Speed Precip Events Conditions
12:41 AM 59.0 °F 44.6 °F 59% 30.24 in 8.0 mi Calm Calm - N/A   Mostly Cloudy
1:47 AM 57.2 °F 46.4 °F 67% 30.25 in 8.0 mi Calm Calm - N/A   Scattered Clouds
2:50 AM 53.6 °F 48.2 °F 82% 29.90 in 8.0 mi Calm Calm - N/A   Mostly Cloudy
4:46 AM 53.6 °F 41.0 °F 62% 30.23 in 8.0 mi Calm Calm - N/A   Scattered Clouds
5:48 AM 51.8 °F 41.0 °F 67% 29.95 in 8.0 mi Calm Calm - N/A   Scattered Clouds
6:46 AM 50.0 °F 41.0 °F 71% 30.24 in 10.0 mi Calm Calm - N/A   Scattered Clouds
7:45 AM 53.6 °F 42.8 °F 67% 30.26 in 10.0 mi Calm Calm - N/A   Scattered Clouds
9:50 AM 71.6 °F 41.0 °F 33% 30.28 in 10.0 mi ESE 6.9 mph - N/A   Partly Cloudy
10:43 AM 73.4 °F 39.2 °F 29% 30.27 in 10.0 mi ESE 6.9 mph - N/A   Partly Cloudy
11:46 AM 77.0 °F 35.6 °F 22% 29.91 in 10.0 mi SE 4.6 mph - N/A   Scattered Clouds
12:45 PM 80.6 °F 37.4 °F 21% 30.24 in 10.0 mi South 10.4 mph - N/A   Scattered Clouds
1:48 PM 84.2 °F 37.4 °F 19% 30.21 in 10.0 mi East 6.9 mph - N/A   Scattered Clouds
3:51 PM 78.8 °F 33.8 °F 20% 30.12 in 10.0 mi SW 6.9 mph - N/A   Scattered Clouds
4:40 PM 75.2 °F 35.6 °F 24% 30.12 in 10.0 mi SSW 6.9 mph - N/A   Scattered Clouds
5:53 PM 71.6 °F 39.2 °F 31% 29.80 in 10.0 mi NNE 6.9 mph - N/A   Scattered Clouds
6:44 PM 66.2 °F 57.2 °F 73% 30.15 in 8.0 mi Calm Calm - N/A   Scattered Clouds
7:48 PM 64.4 °F 39.2 °F 40% 30.18 in 8.0 mi NE 9.2 mph - N/A   Partly Cloudy
8:44 PM 62.6 °F 39.2 °F 42% 29.84 in 8.0 mi ENE 6.9 mph - N/A   Partly Cloudy
9:42 PM 64.4 °F 39.2 °F 40% 30.21 in 8.0 mi NE 11.5 mph - N/A   Partly Cloudy
10:43 PM 59.0 °F 41.0 °F 51% 30.24 in 8.0 mi SSE 5.8 mph - N/A   Clear
11:41 PM 57.2 °F 42.8 °F 59% 29.90 in 8.0 mi Calm Calm - N/A   Clear